Flag for U.S.A. Weather past 2 weeks in Farmington, New Mexico, U.S.A.

Now
80 °F

Passing clouds.


Feels Like: 80 °F
Forecast: 63 / 81 °F
Wind: No wind

Location: Four Corners Regional Airport

Current Time: Aug 1, 2015 at 5:11:54 PM

Latest Report: Aug 1, 2015 at 3:53 PM


Visibility: 10 mi

Pressure: 29.99 "Hg (24.95 "Hg at 1617m altitude)

Humidity: 39%

Dew point: 53 °F

Location of FarmingtonLocation

Historic Weather in Farmington — Graph

°F

Farmington temperature yesterday

Maximum temperature yesterday: 81 °F (at 1:53 PM)
Minimum temperature yesterday: 62 °F (at 4:53 AM)
Average temperature yesterday: 68 °F

Past Weeks' High & Low Weather Summary

 TemperatureHumidityPressure
High92 °F (Jul 25, 3:53 PM)96% (Jul 18, 11:53 PM)30.29 "Hg (Jul 18, 11:53 PM)
Low54 °F (Jul 28, 4:53 AM)7% (Jul 28, 7:53 PM)29.75 "Hg (Jul 27, 6:53 PM)
Average73 °F43%29.99 "Hg
* Reported Jul 17 9:53 PM — Aug 1 3:53 PM, Farmington, Weather by CustomWeather, © 2015

Note: Actual official high and low records may vary slightly from our data, if they occured in-between our weather recording intervals... More about our weather records

Advertising

Farmington weather history for previous 24 hours

 ConditionsComfort  
Time TempWeatherWind HumidityBarometerVisibility
3:53 PM
Sat, Aug 1
80 °FPassing clouds.No wind39%29.99 "Hg10 mi
2:53 PM81 °FSunny.6 mph39%30.01 "Hg10 mi
1:53 PM81 °FSunny.3 mph41%30.02 "Hg10 mi
12:53 PM79 °FPassing clouds.5 mph48%30.04 "Hg10 mi
11:53 AM77 °FLight rain. Cloudy.3 mph48%30.09 "Hg10 mi
10:53 AM73 °FOvercast.3 mph62%30.11 "Hg10 mi
9:53 AM71 °FOvercast.5 mph68%30.12 "Hg10 mi
8:53 AM66 °FBroken clouds.No wind81%30.13 "Hg10 mi
7:53 AM63 °FLight rain. Mostly cloudy.6 mph87%30.12 "Hg10 mi
6:53 AM63 °FPartly cloudy.6 mph90%30.11 "Hg10 mi
5:53 AM63 °FPassing clouds.5 mph93%30.10 "Hg10 mi
4:53 AM63 °FPassing clouds.3 mph93%30.11 "Hg10 mi
3:53 AM64 °FRain. Overcast.6 mph90%30.12 "Hg7 mi
2:53 AM67 °FOvercast.7 mph76%30.12 "Hg10 mi
1:53 AM67 °FOvercast.5 mph76%30.09 "Hg10 mi
12:53 AM68 °FOvercast.3 mph68%30.11 "Hg10 mi
11:53 PM
Fri, Jul 31
68 °FPassing clouds.7 mph65%30.11 "Hg10 mi
10:53 PM68 °FClear.6 mph65%30.12 "Hg10 mi
9:53 PM68 °FClear.6 mph68%30.12 "Hg10 mi
8:53 PM70 °FSunny.6 mph66%30.11 "Hg10 mi
7:53 PM73 °FSunny.7 mph59%30.09 "Hg10 mi
6:53 PM75 °FPartly sunny.9 mph55%30.09 "Hg10 mi
5:53 PM72 °FSunny.6 mph66%30.10 "Hg10 mi
Weather by CustomWeather, © 2015

See weather overviewHow to use our weather pages